Tracking 30166 objects as of 22-Jan-2025
HD Live streaming from Space Station
objects crossing your sky now

STARLINK-32652

Track STARLINK-32652 now!
10-day predictions
STARLINK-32652 is classified as:


NORAD ID: 62234
Int'l Code: 2024-231S
Perigee: 453.7 km
Apogee: 455.1 km
Inclination: 53.2 °
Period: 93.5 minutes
Semi major axis: 6825 km
RCS: Unknown
Launch date: December 5, 2024
Source: United States (US)
Launch site: AIR FORCE WESTERN TEST RANGE (AFWTR)
Your satellite tracking list
Your tracking list is empty




NASA's NSSDC Master Catalog

Two Line Element Set (TLE):
1 62234U 24231S   25021.58607349 -.00001238  00000-0 -20984-4 0  9994
2 62234  53.1621 338.7712 0001010 106.4977 253.6139 15.39609884  8598
Source of the keplerian elements: AFSPC